Location: Pesaro
(43.9000°N, 12.9170°E)
Time: 06:28:21
(UTC+01:00)

ISS - Visible Passes

Search period start: 20 January 2019 00:00
Search period end: 30 January 2019 00:00
Orbit: 404 x 410 km, 51.6° (Epoch: 20 January)

Date Brightness Start Highest point End Pass type
(mag) Time Alt. Az. Time Alt. Az. Time Alt. Az.
21 Jan -1.9 18:44:25 10° S 18:46:04 18° SSE 18:46:04 18° SSE visible
22 Jan -1.5 17:54:39 10° SSE 17:55:47 11° SE 17:56:55 10° ESE visible
22 Jan -1.5 19:28:31 10° SW 19:29:55 23° SW 19:29:55 23° SW visible
23 Jan -3.4 18:37:19 10° SW 18:40:29 46° SE 18:40:56 43° ESE visible
24 Jan -2.4 17:46:25 10° SSW 17:49:13 26° SE 17:51:52 11° E visible
24 Jan -2.2 19:22:24 10° WSW 19:24:36 34° WNW 19:24:36 34° WNW visible
25 Jan -3.8 18:30:52 10° WSW 18:34:09 77° NNW 18:35:27 34° NE visible
26 Jan -3.6 17:39:30 10° SW 17:42:45 61° SE 17:46:02 10° ENE visible
26 Jan -2.1 19:16:31 10° W 19:18:57 28° NW 19:18:57 28° NW visible
27 Jan -2.9 18:24:46 10° W 18:27:55 40° NNW 18:29:41 21° NE visible
28 Jan -1.9 19:10:42 10° WNW 19:13:05 22° NNW 19:13:05 22° NNW visible
29 Jan -2.2 18:18:52 10° WNW 18:21:45 26° NNW 18:23:44 15° NE visible
29 Jan -0.5 19:56:22 10° NW 19:56:27 10° NW 19:56:27 10° NW visible
